Location: Poughquag
(41.6090°N, 73.6820°W)
Time: 14:50:51
(UTC-04:00)

Courier 1B - Pass Details

Date: 01 June 2020
Orbit: 962 x 1209 km, 28.3° (Epoch: 05 July)

Event Time Altitude Azimuth Distance (km) Brightness Sun altitude
Exits shadow 02:45:10 29° 176° (S) 2,049 8.7 -21.1°
Drops below altitude 10° 02:50:57 10° 129° (SE) 3,139 10.0 -20.6°
Sets 02:54:13 0° 119° (ESE) 4,097 10.8 -20.3°
